This is the latest recevied weather packets stored in our database for station/object KD8JAM. If no packets are shown the sender has not sent any weather packets the latest 10 day(s).
| Time | Temp. | Humidity | Pressure | Rain* | Wind** | Luminosity | Snow |
|---|---|---|---|---|---|---|---|
| 1777644701 | 1.67° C | 84% | 1019 hPa | 0 mm | - | 480 W/m² | - |
| 1777644396 | 1.67° C | 85% | 1019.1 hPa | 0 mm | - | 228 W/m² | - |
| 1777644094 | 1.67° C | 84% | 1018.9 hPa | 0 mm | - | 187 W/m² | - |
| 1777643790 | 1.67° C | 86% | 1018.7 hPa | 0 mm | - | 215 W/m² | - |
| 1777643488 | 1.67° C | 85% | 1018.9 hPa | 0 mm | - | 250 W/m² | - |
| 1777643184 | 1.67° C | 88% | 1018.6 hPa | 0 mm | - | 250 W/m² | - |
| 1777642880 | 1.67° C | 88% | 1018.7 hPa | 0 mm | - | 240 W/m² | - |
| 1777642578 | 1.11° C | 89% | 1018.9 hPa | 0 mm | - | 239 W/m² | - |
| 1777642274 | 1.11° C | 89% | 1018.8 hPa | 0 mm | - | 227 W/m² | - |
| 1777641971 | 1.11° C | 89% | 1019 hPa | 0 mm | - | 212 W/m² | - |
| 1777641667 | 1.11° C | 90% | 1018.6 hPa | 0 mm | - | 197 W/m² | - |
| 1777641362 | 1.11° C | 91% | 1018.9 hPa | 0 mm | - | 190 W/m² | - |
| 1777641057 | 1.11° C | 91% | 1018.7 hPa | 0 mm | - | 190 W/m² | - |
| 1777640754 | 1.11° C | 91% | 1018.8 hPa | 0 mm | - | 173 W/m² | - |
| 1777640451 | 1.11° C | 92% | 1018.8 hPa | 0 mm | - | 159 W/m² | - |
| 1777640148 | 0.56° C | 93% | 1018.7 hPa | 0 mm | - | 147 W/m² | - |
| 1777639844 | 0.56° C | 94% | 1018.9 hPa | 0 mm | - | 129 W/m² | - |
| 1777639542 | 0.56° C | 94% | 1018.7 hPa | 0 mm | - | 123 W/m² | - |
| 1777639238 | 0.56° C | 94% | 1018.5 hPa | 0 mm | - | 112 W/m² | - |
| 1777638935 | 0.56° C | 94% | 1018.6 hPa | 0 mm | - | 104 W/m² | - |
| 1777638630 | 0.56° C | 95% | 1018.5 hPa | 0 mm | - | 95 W/m² | - |
| 1777638327 | 0.56° C | 95% | 1018.5 hPa | 0 mm | - | 85 W/m² | - |
| 1777638023 | 0.56° C | 95% | 1018.5 hPa | 0 mm | - | 78 W/m² | - |
| 1777637720 | 0° C | 95% | 1018.4 hPa | 0 mm | - | 69 W/m² | - |
| 1777637417 | 0° C | 95% | 1018.4 hPa | 0 mm | - | 56 W/m² | - |
* Rain latest hour (hover to see other rain measurements)
** Current wind speed in m/s (hover to see current wind gust speed)